#timestamp,LO_Frequency,Hit 
1505437215.4,286047000.3,N
1505437235.2,286047002.7,N
1505437255.0,286047002.2,N
1505437255.9,286047002.2,N
1505437275.8,286046999.8,N
1505437295.6,286046999.8,N
1505437315.5,286047000.8,N
1505437335.3,286047000.9,N
1505437355.1,286047000.2,N
1505437375.9,286047000.0,N
1505437395.7,286046999.9,N
1505437415.5,286047002.8,N
1505437435.4,286047002.2,N
1505437455.2,286047002.3,N
1505437475.1,286047000.0,N
1505437476.0,286047000.0,N
1505437495.8,286046998.3,N
1505437515.6,286046998.2,N
1505437535.5,286047000.3,N
1505437555.3,286047000.6,N
1505437575.2,286047000.6,N
1505437595.9,286047001.1,N
1505437615.7,286046998.6,N
1505437635.6,286046998.7,N
1505437655.4,286046998.0,N
1505437675.2,286046997.9,N
1505437695.1,286046997.1,N
1505437696.0,286046997.1,N
1505437715.8,286046997.8,N
1505437735.7,286046996.5,N
1505437755.5,286046997.2,N
1505437775.3,286046997.7,N
1505437795.2,286046999.5,N
1505437815.0,286046998.8,N
1505437815.9,286046998.8,N
1505437835.8,286047000.8,N
1505437855.6,286047000.6,N
1505437875.4,286046999.6,N
1505437895.3,286046996.5,N
1505437915.1,286046996.7,N
1505437935.8,286046997.7,N
1505437955.7,286046997.5,N
1505437975.5,286046997.9,N
1505437995.4,286046994.9,P
1505438015.2,286046997.7,N
1505438035.0,286046997.5,N
1505438035.9,286046997.5,N
1505438055.8,286046999.1,N
1505438075.6,286047001.0,N
1505438095.5,286047001.1,N
1505438115.3,286046997.0,N
1505438135.1,286046996.6,N
1505438155.9,286047001.2,N
1505438175.7,286047000.2,N
1505438195.5,286047000.9,N
1505438215.4,286047000.8,N
1505438235.2,286047002.4,N
1505438255.1,286047001.4,N
1505438256.0,286047001.4,N
1505438275.8,286047004.3,N
1505438295.6,286047002.9,N
1505438315.5,286047003.7,N
1505438335.3,286047004.2,N
1505438355.2,286047003.2,N
1505438375.9,286047003.1,N
1505438395.7,286047003.8,N
1505438415.6,286047001.9,N
1505438435.4,286047004.4,N
1505438455.3,286047002.1,N
1505438475.1,286047000.2,N
1505438476.0,286047000.2,N
1505438495.8,286047000.1,N
1505438515.7,286047002.1,N
1505438535.5,286047002.8,N
1505438555.3,286046999.9,N
1505438575.2,286046999.5,N
1505438595.0,286046999.4,N
1505438595.9,286046999.4,N
1505438615.8,286046996.5,N
1505438635.6,286046996.8,N
1505438655.4,286046999.1,N
1505438675.3,286046998.1,N
1505438695.1,286047000.3,N
1505438715.9,286047000.0,N
1505438735.7,286047000.3,N
1505438755.5,286046999.8,N
1505438775.4,286046998.6,N
1505438795.2,286046999.8,N
1505438815.0,286047000.3,N
1505438815.9,286047000.3,N
1505438835.8,286047001.6,N
1505438855.6,286047003.6,N
1505438875.5,286047004.4,N
1505438895.3,286047001.4,N
1505438915.1,286047002.3,N
1505438935.9,286047001.1,N
1505438955.7,286047002.7,N
1505438975.5,286047001.3,N
1505438995.4,286047003.9,N
1505439015.2,286047004.2,N
1505439035.1,286047003.6,N
1505439036.0,286047003.6,N
1505439055.8,286047001.5,N
1505439075.6,286047001.5,N
1505439095.5,286047001.9,N
1505439115.3,286047001.5,N
1505439135.2,286047001.8,N
1505439155.9,286047002.2,N
1505439175.7,286047000.4,N
1505439195.6,286047000.3,N
1505439215.4,286047000.1,N
1505439235.3,286047000.6,N
1505439255.1,286047000.1,N
1505439256.0,286047000.1,N
1505439275.8,286047002.0,N
1505439295.7,286047002.1,N
1505439315.5,286047001.5,N
1505439335.4,286047001.9,N
1505439355.2,286046999.8,N
1505439375.0,286047000.7,N
1505439375.9,286047000.7,N
1505439395.8,286047000.7,N
1505439415.6,286046999.1,N
1505439435.5,286046998.1,N
1505439455.3,286046999.5,N
1505439475.1,286046998.1,N
1505439495.9,286046998.2,N
1505439515.7,286046998.5,N
1505439535.5,286046999.5,N
1505439555.4,286046998.3,N
1505439575.2,286047002.1,N
1505439595.1,286047004.3,P
1505439596.0,286047004.3,N
1505439615.8,286047000.4,N
1505439635.6,286047000.0,N
1505439655.5,286047000.9,N
1505439675.3,286046998.2,N
1505439695.1,286046998.7,N
1505439715.9,286047000.7,N
1505439735.7,286046998.6,N
1505439755.6,286047000.9,N
1505439775.4,286047000.9,N
1505439795.2,286046998.7,N
1505439815.1,286047000.6,N
1505439816.0,286047000.6,N
1505439835.8,286047002.8,N
1505439855.7,286047000.9,N
1505439875.5,286047002.7,N
1505439895.3,286047002.6,N
1505439915.2,286047002.7,N
1505439935.0,286047002.3,N
1505439935.9,286047002.3,N
1505439955.8,286047002.3,N
1505439975.6,286046999.9,N
1505439995.4,286046998.6,N
1505440015.3,286046997.0,N
1505440035.1,286046999.6,N
1505440055.8,286046999.4,N
1505440075.7,286047000.8,N
1505440095.5,286047000.8,N
1505440115.4,286046998.7,N
1505440135.2,286047002.8,N
1505440155.0,286047000.9,N
1505440155.9,286047000.9,N
1505440175.8,286047000.9,N
1505440195.6,286046998.8,N
1505440215.5,286046999.3,N
1505440235.3,286046998.1,N
1505440255.1,286046998.9,N
1505440275.9,286046997.0,P
1505440295.7,286046999.5,N
1505440315.6,286046999.1,N
1505440335.4,286046998.4,N
1505440355.2,286046998.4,N
1505440375.1,286046997.8,N
1505440376.0,286046997.8,N
1505440395.8,286046996.7,P
1505440415.7,286046999.4,N
1505440435.5,286046996.5,P
1505440455.3,286046996.5,N
1505440475.2,286046994.9,P
1505440495.0,286046998.4,N
1505440495.9,286046998.4,N
1505440515.8,286047001.0,N
1505440535.6,286047000.3,N
1505440555.4,286047002.0,N
1505440575.3,286047000.2,N
1505440595.1,286047002.6,N
1505440615.9,286047001.4,N
1505440635.7,286046999.7,N
1505440655.5,286047000.0,N
1505440675.4,286047000.0,N
1505440695.2,286047000.1,N
1505440715.0,286047000.7,N
1505440715.9,286047000.7,N
1505440735.8,286047000.4,N
1505440755.6,286047001.5,N
1505440775.5,286047004.3,N
1505440795.3,286046999.7,N
